[[{"header":{"parameterUnit":"m.s-1","parameterCategory":2,"la1":30.2991,"la2":30.254,"lo1":-89.0895,"lo2":-89.0444,"dx":0.0017,"dy":0.0017,"nx":28,"ny":28,"refTime":"2022-12-05T15:00:00:Z","depth":"0","parameterNumber":2,"parameterNumberName":"U-component_of_CURRENTS"},"data":[0,0,0,0,0,0,0,0,0,0,0,0,0,0,0,0,0,0,0,0,0,0,0,0,0,0,0,0,0,0,0,0,0,0,0,0,0,0,0,0,0,0,0,0,0,0,0,0,0,0,0,0,0,0,0,0,0,0,-0.3345,-0.3346,0,-0.3458,-0.346,-0.3461,-0.3528,-0.3529,-0.3529,-0.353,-0.3443,-0.3441,-0.3438,0,0,0,0,0,0,0,0,0,0,0,0,0,-0.3401,-0.3398,-0.3345,-0.3346,-0.3348,-0.3458,-0.346,-0.3461,-0.3528,-0.3529,-0.3529,-0.353,-0.3444,-0.3441,-0.3438,0,0,0,0,0,0,0,0,0,0,0,0,0,-0.3429,-0.3397,-0.3344,-0.3396,-0.3402,-0.3458,-0.346,-0.3461,-0.3528,-0.3529,-0.3529,-0.353,-0.3445,-0.3441,-0.3437,-0.3398,0,0,-0.3425,-0.3423,0,0,0,0,0,0,0,0,-0.3427,-0.3427,-0.3387,-0.3393,-0.3399,-0.3481,-0.3448,-0.3431,-0.3528,-0.3478,-0.353,-0.353,-0.3438,-0.3435,-0.3455,-0.3394,-0.339,-0.3424,-0.3422,-0.342,-0.3419,0,0,0,0,0,0,0,-0.3425,-0.3424,-0.3388,-0.3388,-0.3396,-0.3487,-0.349,-0.3447,-0.3448,-0.3483,-0.3488,-0.3503,-0.344,-0.3459,-0.3453,-0.3389,-0.3424,-0.3421,-0.3418,-0.3417,-0.3195,-0.3192,0,0,0,0,0,0,-0.3401,-0.342,-0.3384,-0.3392,-0.3417,-0.3485,-0.3488,-0.3453,-0.3453,-0.3456,-0.3503,-0.3506,-0.3466,-0.3457,-0.345,-0.3269,-0.342,-0.3416,-0.3414,-0.3199,-0.3195,-0.3191,0,0,0,0,0,0,-0.3401,-0.3395,-0.338,-0.3414,-0.3418,-0.3482,-0.3443,-0.3455,-0.3476,-0.3471,-0.3469,-0.3512,-0.3466,-0.3455,-0.3397,-0.3271,-0.3414,-0.3411,-0.3203,-0.3198,-0.3193,-0.2992,0,0,0,0,0,0,-0.3401,-0.3393,-0.3359,-0.341,-0.3415,-0.3363,-0.3443,-0.3457,-0.3485,-0.3491,-0.3477,-0.3471,-0.3465,-0.3403,-0.3393,-0.3268,-0.3407,-0.3207,-0.3201,-0.3194,-0.3003,-0.2981,-0.2962,0,0,0,0,0,-0.3402,-0.3331,-0.3355,-0.3352,-0.3364,-0.336,-0.3369,-0.3421,-0.3485,-0.3452,-0.3469,-0.3472,-0.3354,-0.3398,-0.3386,-0.3257,-0.321,-0.3202,-0.3195,-0.3013,-0.2985,-0.2962,0,0,0,0,0,0,-0.3335,-0.3334,-0.3361,-0.3292,-0.331,-0.3371,-0.3337,-0.3417,-0.3415,-0.3407,-0.3444,-0.3434,-0.3332,-0.3338,-0.3387,-0.3179,-0.3275,-0.3264,-0.314,-0.3114,-0.3094,-0.3023,-0.3404,0,0,0,0,0,-0.3305,-0.3229,-0.3281,-0.3209,-0.3209,-0.3284,-0.3297,-0.3335,-0.3351,-0.3356,-0.3364,-0.3345,-0.3291,-0.3244,-0.3208,-0.3098,-0.3087,-0.3006,-0.2985,-0.2968,-0.2904,-0.2817,-0.2781,-0.3166,-0.3166,-0.3166,0,0,-0.325,-0.3242,-0.3197,-0.3188,-0.3195,-0.3131,-0.3287,-0.3263,-0.3205,-0.3336,-0.324,-0.3278,-0.3256,-0.3131,-0.3081,-0.3115,-0.2855,-0.2958,-0.2942,-0.2887,-0.2805,-0.2767,-0.2734,-0.3161,-0.3161,-0.3162,0,0,-0.305,-0.3093,-0.2943,-0.2957,-0.2959,-0.3011,-0.3005,-0.306,-0.307,-0.3019,-0.3086,-0.305,-0.2994,-0.2935,-0.2902,-0.2744,-0.2766,-0.2747,-0.2551,-0.2468,-0.2435,-0.2405,-0.2351,-0.2318,-0.2715,-0.2714,-0.2714,0,-0.2931,-0.2821,-0.2906,-0.2788,-0.2777,-0.2941,-0.2815,-0.284,-0.2877,-0.2869,-0.2938,-0.288,-0.2867,-0.2708,-0.2649,-0.268,-0.2674,-0.2647,-0.2437,-0.2407,-0.238,-0.2332,-0.2299,-0.2703,-0.2705,-0.2706,-0.2707,0,-0.2646,-0.2576,-0.2494,-0.2389,-0.2398,-0.2324,-0.2396,-0.2404,-0.2483,-0.253,-0.2458,-0.2488,-0.2458,-0.2439,-0.2481,-0.2285,-0.2358,-0.2439,-0.2493,-0.2329,-0.229,-0.2258,-0.2688,-0.2692,-0.2695,-0.2698,0,0,-0.2228,-0.2267,-0.2222,-0.2175,-0.2201,-0.2165,-0.2092,-0.2074,-0.2024,-0.2086,-0.2011,-0.1946,-0.2066,-0.2035,-0.2108,-0.2016,-0.1829,-0.2129,-0.213,-0.2061,-0.1666,-0.1662,-0.1629,-0.1895,-0.1888,-0.1883,-0.1719,0,-0.1923,-0.1716,-0.181,-0.1616,-0.1531,-0.1701,-0.1614,-0.1647,-0.172,-0.1702,-0.1779,-0.1718,-0.1882,-0.1862,-0.1812,-0.1873,-0.1736,-0.1866,-0.1845,-0.1843,-0.1847,-0.1586,-0.1443,-0.1279,-0.1689,-0.1684,-0.168,0,-0.1548,-0.1492,-0.1286,-0.1292,-0.1256,-0.1175,-0.1156,-0.1112,-0.1177,-0.123,-0.1279,-0.1403,-0.1354,-0.1488,-0.1452,-0.1552,-0.1539,-0.156,-0.1557,-0.1585,-0.1776,-0.1509,-0.1208,-0.13,-0.1632,-0.1636,-0.164,0,-0.1225,-0.1105,-0.0964,-0.0954,-0.0968,-0.0899,-0.0903,-0.0948,-0.0928,-0.0941,-0.0932,-0.1004,-0.0989,-0.105,-0.1222,-0.1301,-0.1175,-0.1301,-0.1248,-0.1253,-0.1131,-0.1135,-0.0889,-0.1098,-0.1098,-0.1099,-0.1099,0,-0.0872,-0.0747,-0.0808,-0.0722,-0.0549,-0.0635,-0.0485,-0.0515,-0.0551,-0.0506,-0.0671,-0.0621,-0.0861,-0.0922,-0.1082,-0.1106,-0.1072,-0.1113,-0.1158,-0.1063,-0.1063,-0.1148,-0.1231,-0.1093,-0.1094,-0.1095,-0.1096,0,-0.0555,-0.0587,-0.0441,-0.0423,-0.0401,-0.0283,-0.0292,-0.0232,-0.0238,-0.0193,-0.018,-0.0286,-0.0328,-0.0589,-0.0654,-0.0846,-0.0893,-0.0886,-0.0788,-0.0821,-0.088,-0.0958,-0.0709,-0.0683,-0.0767,-0.0765,-0.0763,0,-0.0404,-0.0291,-0.023,-0.0186,-0.0175,-0.0071,-0.0031,-0.0064,-0.0056,0.0005,0.0036,0.0067,0.0054,-0.0105,-0.0367,-0.0566,-0.0678,-0.0552,-0.062,-0.075,-0.0872,-0.0945,-0.0948,-0.0392,-0.0388,-0.0384,-0.0381,0,-0.0155,-0.0134,-0.0081,0.0026,0.0092,0.0148,0.0189,0.0241,0.0196,0.0261,0.0326,0.0375,0.0326,0.0239,0.001,-0.0184,-0.0547,-0.0478,-0.059,-0.0475,-0.0548,-0.0595,-0.0697,-0.0348,-0.0352,-0.0354,-0.0356,-0.0357,-0.0043,0.0033,0.0082,0.0181,0.0237,0.0303,0.0355,0.0368,0.0433,0.0483,0.0511,0.0601,0.0658,0.041,0.0145,-0.0168,-0.0204,-0.025,-0.031,-0.0358,-0.0355,-0.0396,-0.0143,-0.0145,-0.0147,-0.0148,-0.0149,0,0.0044,0.0101,0.0207,0.0281,0.0341,0.0357,0.0427,0.045,0.0514,0.0607,0.0655,0.0755,0.0778,0.0589,0.0308,0.004,-0.0097,-0.013,-0.0172,-0.0169,-0.0147,-0.016,0.0075,0.0076,0.0076,0.0076,0.0076,0.0076,0.0069,0.0166,0.0222,0.0329,0.0367,0.0421,0.045,0.052,0.0586,0.0699,0.0741,0.077,0.0769,0.0576,0.0186,0.0023,-0.0137,-0.0127,-0.0272,-0.0288,-0.0305,-0.0322,-0.0351,-0.016,-0.016,-0.0204,-0.0205,-0.0206]},{"header":{"parameterUnit":"m.s-1","parameterCategory":2,"la1":30.2991,"la2":30.254,"lo1":-89.0895,"lo2":-89.0444,"dx":0.0017,"dy":0.0017,"nx":28,"ny":28,"refTime":"2022-12-05T15:00:00:Z","depth":"0","parameterNumber":3,"parameterNumberName":"V-component_of_CURRENTS"},"data":[0,0,0,0,0,0,0,0,0,0,0,0,0,0,0,0,0,0,0,0,0,0,0,0,0,0,0,0,0,0,0,0,0,0,0,0,0,0,0,0,0,0,0,0,0,0,0,0,0,0,0,0,0,0,0,0,0,0,0.0682,0.0688,0,0.1177,0.1182,0.1188,0.1536,0.1539,0.1542,0.1545,0.1894,0.19,0.1907,0,0,0,0,0,0,0,0,0,0,0,0,0,0.0464,0.0464,0.0682,0.0688,0.0694,0.1176,0.1183,0.1189,0.1535,0.1539,0.1543,0.1546,0.1891,0.1899,0.1907,0,0,0,0,0,0,0,0,0,0,0,0,0,0.0715,0.0463,0.0681,0.0927,0.0954,0.1175,0.1183,0.1191,0.1535,0.1539,0.1543,0.1548,0.1889,0.1898,0.1908,0.1882,0,0,0.1938,0.1943,0,0,0,0,0,0,0,0,0.07,0.0722,0.0884,0.091,0.0941,0.1301,0.1235,0.1415,0.1534,0.1312,0.1545,0.155,0.168,0.1707,0.179,0.1898,0.1913,0.1939,0.1945,0.1949,0.1952,0,0,0,0,0,0,0,0.0682,0.0706,0.0876,0.0891,0.0925,0.116,0.1196,0.1273,0.1461,0.1332,0.1359,0.1416,0.1695,0.178,0.18,0.1918,0.1939,0.1948,0.1954,0.1958,0.204,0.2036,0,0,0,0,0,0,0.0597,0.0686,0.086,0.0891,0.0831,0.1158,0.1199,0.1179,0.1464,0.1514,0.1411,0.143,0.1761,0.1788,0.1813,0.1834,0.1949,0.1959,0.1964,0.2043,0.2039,0.2035,0,0,0,0,0,0,0.0588,0.0604,0.084,0.0808,0.0854,0.1154,0.1132,0.1187,0.1294,0.1527,0.1574,0.1464,0.1765,0.18,0.1868,0.1849,0.1963,0.1972,0.2048,0.2042,0.2037,0.1851,0,0,0,0,0,0,0.0578,0.0596,0.0589,0.0797,0.0853,0.0966,0.113,0.1193,0.1322,0.1352,0.1586,0.1624,0.1771,0.1851,0.1877,0.1864,0.198,0.2052,0.2045,0.2038,0.1862,0.184,0.1821,0,0,0,0,0,0.0568,0.0575,0.0582,0.0608,0.0816,0.0966,0.1015,0.1247,0.1319,0.1358,0.149,0.1618,0.1826,0.1856,0.1887,0.1877,0.2056,0.2047,0.2039,0.1871,0.1844,0.1821,0,0,0,0,0,0,0.056,0.0616,0.063,0.0671,0.0784,0.1026,0.1115,0.1217,0.1358,0.1379,0.1574,0.1618,0.1662,0.1767,0.1796,0.187,0.1959,0.1956,0.182,0.1796,0.1776,0.1877,0.1988,0,0,0,0,0,0.0511,0.0497,0.0601,0.0648,0.0668,0.0857,0.0957,0.1074,0.1221,0.1295,0.144,0.1565,0.1645,0.1719,0.1803,0.1847,0.1937,0.1853,0.1832,0.1815,0.1911,0.1987,0.1985,0.2007,0.2007,0.2007,0,0,0.0554,0.0568,0.0585,0.0639,0.0741,0.0823,0.093,0.1045,0.1134,0.1294,0.1431,0.1483,0.1626,0.1683,0.1715,0.1784,0.182,0.1804,0.1789,0.1898,0.1979,0.1978,0.1977,0.2001,0.2002,0.2003,0,0,0.0627,0.0579,0.059,0.0637,0.0726,0.0814,0.0815,0.0976,0.1053,0.1132,0.1257,0.1307,0.1448,0.1571,0.1642,0.155,0.1681,0.1535,0.1566,0.1632,0.1634,0.1637,0.161,0.1613,0.156,0.156,0.1559,0,0.0674,0.0683,0.0643,0.0669,0.0757,0.0784,0.0873,0.0924,0.11,0.1179,0.1147,0.1351,0.1421,0.156,0.1523,0.1518,0.1549,0.1649,0.1612,0.1618,0.1625,0.1599,0.1605,0.155,0.1551,0.1552,0.1553,0,0.0761,0.0775,0.0789,0.0792,0.0855,0.0928,0.0959,0.1014,0.1049,0.114,0.1213,0.1255,0.1435,0.1378,0.1436,0.1513,0.1504,0.1545,0.1689,0.1613,0.1586,0.1595,0.1535,0.1539,0.1542,0.1544,0,0,0.0862,0.085,0.0861,0.0903,0.0924,0.1005,0.106,0.118,0.129,0.1274,0.1426,0.1428,0.1447,0.1527,0.1539,0.1566,0.153,0.1577,0.1585,0.1575,0.1613,0.1516,0.1517,0.1565,0.1569,0.1572,0.1526,0,0.0965,0.103,0.1011,0.1143,0.1189,0.1215,0.1297,0.1384,0.1422,0.153,0.1492,0.1587,0.1495,0.1545,0.1548,0.1539,0.1571,0.1537,0.1675,0.168,0.1626,0.1534,0.1615,0.1578,0.1537,0.1538,0.154,0,0.1069,0.1095,0.1207,0.1323,0.135,0.143,0.1605,0.1677,0.1769,0.1802,0.1848,0.1824,0.1821,0.1744,0.1716,0.1691,0.1688,0.1647,0.1646,0.1677,0.1608,0.1674,0.1599,0.1586,0.1556,0.1555,0.1554,0,0.117,0.1262,0.1357,0.1388,0.1487,0.1586,0.1667,0.1787,0.1848,0.1974,0.2042,0.2022,0.1995,0.1965,0.179,0.1796,0.173,0.1746,0.1664,0.1652,0.1825,0.1824,0.1812,0.1842,0.1842,0.1843,0.1843,0,0.1272,0.1355,0.141,0.146,0.1611,0.1675,0.1852,0.1945,0.2048,0.2125,0.2175,0.2211,0.2058,0.1964,0.1857,0.1713,0.1786,0.169,0.1665,0.1736,0.1728,0.1814,0.1815,0.1841,0.1841,0.1841,0.1842,0,0.1322,0.1355,0.1474,0.1601,0.1638,0.1745,0.1884,0.2019,0.2137,0.2234,0.2264,0.2301,0.2211,0.2025,0.1918,0.1787,0.1699,0.1659,0.1674,0.1653,0.1576,0.1563,0.1624,0.1711,0.1592,0.159,0.1588,0,0.1344,0.1393,0.1536,0.159,0.1631,0.1776,0.1885,0.2024,0.2108,0.2271,0.2299,0.2297,0.2296,0.2055,0.1836,0.1638,0.1683,0.1603,0.1675,0.1596,0.1566,0.1567,0.1641,0.1768,0.1767,0.1767,0.1767,0,0.1369,0.1414,0.1559,0.1598,0.1709,0.1832,0.1958,0.2021,0.2171,0.227,0.239,0.243,0.2299,0.2131,0.1832,0.1714,0.1649,0.1594,0.1582,0.1771,0.1723,0.1785,0.1683,0.1765,0.1766,0.1766,0.1766,0.1766,0.1436,0.15,0.1599,0.1693,0.1803,0.186,0.194,0.2039,0.2141,0.2247,0.2346,0.2427,0.2333,0.1986,0.1802,0.1595,0.1674,0.1628,0.1626,0.1637,0.1729,0.1547,0.1554,0.1553,0.1552,0.1551,0.1551,0,0.144,0.1508,0.1614,0.1748,0.1859,0.1889,0.1971,0.2037,0.2111,0.2198,0.2297,0.2356,0.2176,0.2007,0.1756,0.1649,0.1692,0.1631,0.1731,0.1819,0.1733,0.1748,0.1716,0.1716,0.1716,0.1716,0.1716,0.1716,0.143,0.1515,0.1577,0.1738,0.1868,0.1938,0.1988,0.2052,0.2054,0.2187,0.2253,0.233,0.2275,0.1903,0.1682,0.1664,0.1738,0.171,0.1732,0.1706,0.1709,0.1711,0.1725,0.1689,0.1689,0.1927,0.1928,0.193]}],[{"header":{"parameterUnit":"m.s-1","parameterCategory":2,"la1":30.2991,"la2":30.254,"lo1":-89.0895,"lo2":-89.0444,"dx":0.0017,"dy":0.0017,"nx":28,"ny":28,"refTime":"2022-12-05T15:00:00:Z","depth":"2","parameterNumber":2,"parameterNumberName":"U-component_of_CURRENTS"},"data":[0,0,0,0,0,0,0,0,0,0,0,0,0,0,0,0,0,0,0,0,0,0,0,0,0,0,0,0,0,0,0,0,0,0,0,0,0,0,0,0,0,0,0,0,0,0,0,0,0,0,0,0,0,0,0,0,0,0,-0.2392,-0.2393,0,-0.2547,-0.2549,-0.2552,-0.2653,-0.2653,-0.2653,-0.2653,-0.2712,-0.2713,-0.2715,0,0,0,0,0,0,0,0,0,0,0,0,0,-0.2174,-0.2178,-0.2392,-0.2393,-0.2394,-0.2547,-0.2549,-0.2552,-0.2653,-0.2653,-0.2653,-0.2653,-0.2711,-0.2713,-0.2715,0,0,0,0,0,0,0,0,0,0,0,0,0,-0.23,-0.218,-0.2392,-0.2457,-0.2464,-0.2546,-0.255,-0.2553,-0.2653,-0.2653,-0.2653,-0.2653,-0.2711,-0.2713,-0.2716,-0.2733,0,0,-0.2723,-0.2724,0,0,0,0,0,0,0,0,-0.2293,-0.2309,-0.2446,-0.2453,-0.246,-0.2574,-0.2494,-0.2606,-0.2654,-0.259,-0.2653,-0.2653,-0.2652,-0.2659,-0.2701,-0.2735,-0.2738,-0.2723,-0.2725,-0.2726,-0.2726,0,0,0,0,0,0,0,-0.2284,-0.2303,-0.2461,-0.2447,-0.2456,-0.2475,-0.2494,-0.2517,-0.2624,-0.2596,-0.2601,-0.2606,-0.2656,-0.2699,-0.2703,-0.2739,-0.2723,-0.2725,-0.2727,-0.2728,-0.2795,-0.2795,0,0,0,0,0,0,-0.2251,-0.2295,-0.2456,-0.2465,-0.2366,-0.2479,-0.25,-0.2544,-0.2626,-0.2637,-0.2606,-0.261,-0.2695,-0.27,-0.2705,-0.268,-0.2726,-0.2728,-0.2729,-0.2794,-0.2795,-0.2795,0,0,0,0,0,0,-0.2246,-0.2265,-0.245,-0.2374,-0.2398,-0.2482,-0.2531,-0.2547,-0.2549,-0.2633,-0.2644,-0.2584,-0.2695,-0.2701,-0.2754,-0.2684,-0.2729,-0.2731,-0.2794,-0.2795,-0.2795,-0.266,0,0,0,0,0,0,-0.224,-0.2264,-0.2238,-0.2374,-0.2401,-0.2455,-0.253,-0.255,-0.255,-0.2557,-0.2619,-0.2628,-0.2695,-0.2751,-0.2757,-0.2688,-0.2733,-0.2794,-0.2794,-0.2795,-0.2664,-0.2655,-0.2648,0,0,0,0,0,-0.2233,-0.2217,-0.2237,-0.2253,-0.238,-0.2452,-0.2467,-0.2531,-0.2548,-0.2535,-0.2631,-0.2624,-0.2757,-0.2755,-0.2761,-0.2691,-0.2793,-0.2794,-0.2795,-0.2667,-0.2657,-0.2649,0,0,0,0,0,0,-0.2095,-0.2229,-0.2254,-0.2274,-0.2328,-0.2465,-0.2466,-0.2493,-0.2558,-0.2585,-0.2647,-0.2664,-0.2685,-0.2719,-0.2714,-0.272,-0.2763,-0.2766,-0.2664,-0.2655,-0.2647,-0.2633,-0.2735,0,0,0,0,0,-0.2053,-0.2102,-0.2197,-0.2213,-0.2243,-0.2338,-0.2357,-0.2418,-0.2508,-0.2535,-0.2602,-0.2668,-0.2699,-0.2702,-0.2769,-0.276,-0.275,-0.2719,-0.2711,-0.2703,-0.2702,-0.2655,-0.2641,-0.2798,-0.2798,-0.2798,0,0,-0.1993,-0.2084,-0.2096,-0.2187,-0.226,-0.2308,-0.2354,-0.241,-0.2431,-0.253,-0.2596,-0.2653,-0.2702,-0.2731,-0.2733,-0.2737,-0.2648,-0.2704,-0.2697,-0.27,-0.2654,-0.2638,-0.2623,-0.2798,-0.2798,-0.2798,0,0,-0.1943,-0.2,-0.202,-0.209,-0.2188,-0.2258,-0.225,-0.2381,-0.2406,-0.2472,-0.255,-0.2574,-0.2644,-0.267,-0.2677,-0.2655,-0.2627,-0.2655,-0.2572,-0.2525,-0.251,-0.2497,-0.2421,-0.2402,-0.2626,-0.2626,-0.2625,0,-0.1865,-0.1931,-0.2019,-0.2085,-0.2133,-0.2223,-0.2252,-0.2297,-0.2425,-0.2437,-0.2478,-0.2576,-0.2608,-0.2584,-0.2596,-0.2625,-0.2599,-0.259,-0.2508,-0.2495,-0.2484,-0.241,-0.2391,-0.2619,-0.262,-0.2621,-0.2621,0,-0.1853,-0.1903,-0.1938,-0.2062,-0.2098,-0.2164,-0.2244,-0.2277,-0.2321,-0.2374,-0.2387,-0.2464,-0.2505,-0.2493,-0.2538,-0.2463,-0.2468,-0.2513,-0.2513,-0.2459,-0.2385,-0.2368,-0.261,-0.2612,-0.2614,-0.2616,0,0,-0.1717,-0.1891,-0.1899,-0.1944,-0.211,-0.2137,-0.2179,-0.2216,-0.2217,-0.2294,-0.2274,-0.2316,-0.2355,-0.237,-0.2398,-0.2348,-0.2229,-0.2388,-0.2388,-0.2279,-0.2095,-0.1979,-0.1949,-0.2254,-0.2251,-0.2249,-0.2057,0,-0.1683,-0.1768,-0.1869,-0.1924,-0.1972,-0.2086,-0.2109,-0.2157,-0.2201,-0.2221,-0.2224,-0.2252,-0.2298,-0.2306,-0.226,-0.2276,-0.2186,-0.2275,-0.2196,-0.2193,-0.2068,-0.1926,-0.1859,-0.1673,-0.2041,-0.2038,-0.2036,0,-0.1629,-0.1708,-0.1752,-0.1869,-0.1894,-0.1937,-0.1987,-0.2029,-0.2077,-0.2103,-0.2119,-0.2166,-0.2124,-0.2171,-0.2086,-0.2145,-0.21,-0.2084,-0.2077,-0.2008,-0.2044,-0.1802,-0.1628,-0.2007,-0.2009,-0.2011,-0.2013,0,-0.1474,-0.1609,-0.1631,-0.1692,-0.1839,-0.1851,-0.1916,-0.199,-0.2,-0.2039,-0.2045,-0.2038,-0.2026,-0.1985,-0.1955,-0.2023,-0.1835,-0.1928,-0.1756,-0.1748,-0.1695,-0.1685,-0.1812,-0.1812,-0.1813,-0.1813,-0.1814,0,-0.1415,-0.1436,-0.1564,-0.1597,-0.1608,-0.175,-0.176,-0.1822,-0.1888,-0.1886,-0.1978,-0.1955,-0.1983,-0.1905,-0.1885,-0.173,-0.1763,-0.1694,-0.1673,-0.1644,-0.1632,-0.1959,-0.1978,-0.1806,-0.1808,-0.1809,-0.181,0,-0.1272,-0.1361,-0.1402,-0.1525,-0.1549,-0.1565,-0.1678,-0.1689,-0.1777,-0.177,-0.1776,-0.1849,-0.1781,-0.1739,-0.1656,-0.1612,-0.1502,-0.1427,-0.1367,-0.1342,-0.1469,-0.1485,-0.1238,-0.1232,-0.1227,-0.1223,-0.1219,0,-0.1225,-0.1229,-0.1315,-0.1323,-0.1391,-0.1442,-0.1478,-0.1603,-0.1627,-0.1697,-0.1672,-0.1641,-0.1611,-0.143,-0.1345,-0.1198,-0.1299,-0.1029,-0.1148,-0.1395,-0.1402,-0.1426,-0.1448,-0.1017,-0.1012,-0.1008,-0.1005,0,-0.1142,-0.1158,-0.1191,-0.1207,-0.1238,-0.127,-0.1341,-0.1333,-0.1465,-0.1457,-0.1461,-0.1455,-0.1348,-0.1224,-0.1038,-0.0955,-0.1062,-0.094,-0.1174,-0.1177,-0.1172,-0.1185,-0.1216,-0.0969,-0.0972,-0.0975,-0.0977,-0.0978,-0.1069,-0.1058,-0.1082,-0.1091,-0.1114,-0.1119,-0.1106,-0.1163,-0.1166,-0.1151,-0.1217,-0.116,-0.1178,-0.0896,-0.0779,-0.0668,-0.0786,-0.0761,-0.078,-0.0802,-0.0815,-0.0801,-0.0528,-0.0529,-0.053,-0.0531,-0.0532,0,-0.0983,-0.0971,-0.0968,-0.0977,-0.0961,-0.1013,-0.1017,-0.0989,-0.0944,-0.0914,-0.0877,-0.0776,-0.0699,-0.0693,-0.0511,-0.045,-0.0499,-0.0391,-0.0521,-0.0555,-0.0586,-0.0596,-0.0247,-0.0246,-0.0245,-0.0244,0,0,-0.0932,-0.0893,-0.0891,-0.0834,-0.0833,-0.0778,-0.0754,-0.0709,-0.0662,-0.0575,-0.0524,-0.0551,-0.0645,-0.0448,-0.0401,-0.031,-0.0408,-0.0244,-0.0474,-0.066,-0.069,-0.0798,-0.0848,0,0,0,0,0]},{"header":{"parameterUnit":"m.s-1","parameterCategory":2,"la1":30.2991,"la2":30.254,"lo1":-89.0895,"lo2":-89.0444,"dx":0.0017,"dy":0.0017,"nx":28,"ny":28,"refTime":"2022-12-05T15:00:00:Z","depth":"2","parameterNumber":3,"parameterNumberName":"V-component_of_CURRENTS"},"data":[0,0,0,0,0,0,0,0,0,0,0,0,0,0,0,0,0,0,0,0,0,0,0,0,0,0,0,0,0,0,0,0,0,0,0,0,0,0,0,0,0,0,0,0,0,0,0,0,0,0,0,0,0,0,0,0,0,0,-0.0196,-0.0193,0,-0.0037,-0.0036,-0.0036,-0.0039,-0.0039,-0.004,-0.0041,0.0184,0.0191,0.0197,0,0,0,0,0,0,0,0,0,0,0,0,0,-0.0573,-0.0567,-0.0197,-0.0193,-0.019,-0.0037,-0.0036,-0.0036,-0.0038,-0.0039,-0.004,-0.0041,0.0182,0.019,0.0198,0,0,0,0,0,0,0,0,0,0,0,0,0,-0.0426,-0.0565,-0.0197,-0.0161,-0.0155,-0.0037,-0.0036,-0.0035,-0.0038,-0.0039,-0.004,-0.0041,0.018,0.0189,0.0199,0.0282,0,0,0.023,0.0234,0,0,0,0,0,0,0,0,-0.0434,-0.0414,-0.017,-0.0163,-0.0156,-0.0045,-0.0085,0.0079,-0.0038,-0.0099,-0.0041,-0.0042,0.0125,0.0139,0.0148,0.0292,0.0302,0.023,0.0236,0.0241,0.0244,0,0,0,0,0,0,0,-0.0444,-0.0421,-0.0149,-0.0166,-0.0157,-0.0175,-0.0157,-0.0056,0.0006,-0.0094,-0.009,-0.0047,0.0127,0.0138,0.0154,0.0305,0.023,0.0239,0.0245,0.0249,0.061,0.0613,0,0,0,0,0,0,-0.0426,-0.043,-0.0154,-0.0143,-0.0283,-0.0166,-0.0146,-0.0092,0.0003,0.0021,-0.0046,-0.0047,0.0122,0.0142,0.0162,0.0298,0.0241,0.025,0.0256,0.0606,0.0611,0.0614,0,0,0,0,0,0,-0.0435,-0.0403,-0.016,-0.0272,-0.024,-0.0156,-0.0097,-0.0088,-0.0093,0.0042,0.0057,-0.0059,0.0122,0.0148,0.0231,0.0305,0.0255,0.0264,0.0602,0.0607,0.0612,0.0549,0,0,0,0,0,0,-0.0446,-0.0407,-0.0416,-0.0269,-0.0232,-0.014,-0.0094,-0.0084,-0.0055,-0.0057,0.0038,0.0057,0.0123,0.0215,0.0241,0.0318,0.0271,0.0597,0.0604,0.0611,0.0547,0.0552,0.0556,0,0,0,0,0,-0.046,-0.0485,-0.0418,-0.0386,-0.0229,-0.014,-0.0129,-0.0083,-0.0055,-0.0087,0.0002,0.0053,0.0279,0.0224,0.0254,0.0336,0.0594,0.0602,0.061,0.0545,0.0551,0.0556,0,0,0,0,0,0,-0.0666,-0.0479,-0.0406,-0.0372,-0.0271,-0.0137,-0.0144,-0.0092,-0.005,-0.0029,0.0068,0.0094,0.022,0.028,0.0218,0.0468,0.046,0.0474,0.0401,0.0408,0.0412,0.0354,0.028,0,0,0,0,0,-0.0697,-0.0652,-0.0478,-0.0446,-0.0389,-0.0261,-0.023,-0.0169,-0.0077,-0.0063,0.0016,0.014,0.0284,0.0333,0.0454,0.0554,0.0548,0.0642,0.0646,0.0649,0.0628,0.0646,0.0647,0.0641,0.0641,0.0641,0,0,-0.0748,-0.0647,-0.0615,-0.0485,-0.0387,-0.0314,-0.0252,-0.018,-0.0118,-0.0033,0.0036,0.0157,0.0319,0.0448,0.0512,0.0495,0.0653,0.066,0.066,0.0637,0.0654,0.0653,0.0653,0.0647,0.0646,0.0645,0,0,-0.0817,-0.0737,-0.0711,-0.0632,-0.0481,-0.0385,-0.0365,-0.0221,-0.0172,-0.006,0.005,0.0157,0.0359,0.0457,0.0553,0.0649,0.0688,0.075,0.0708,0.0727,0.0724,0.0723,0.0703,0.07,0.0736,0.0736,0.0736,0,-0.0882,-0.0815,-0.0702,-0.0652,-0.0587,-0.0414,-0.0367,-0.0273,-0.0132,-0.009,-0.0043,0.0246,0.036,0.0529,0.0588,0.0653,0.0666,0.0662,0.0722,0.072,0.0719,0.07,0.0698,0.0734,0.0734,0.0734,0.0735,0,-0.0901,-0.0861,-0.0838,-0.0693,-0.0635,-0.0563,-0.0382,-0.0327,-0.021,-0.0106,0.0064,0.0222,0.0368,0.0477,0.0578,0.068,0.0693,0.0726,0.0678,0.0714,0.0695,0.0692,0.0731,0.0732,0.0732,0.0733,0,0,-0.0961,-0.0869,-0.0856,-0.0813,-0.0646,-0.0581,-0.0479,-0.0343,-0.0284,-0.0113,-0.0048,0.0232,0.0302,0.0414,0.0557,0.0605,0.0623,0.0673,0.0675,0.0601,0.0649,0.0632,0.0628,0.0675,0.0675,0.0675,0.063,0,-0.0984,-0.0951,-0.089,-0.0826,-0.077,-0.0635,-0.0561,-0.0425,-0.0292,-0.02,0.0004,0.0147,0.0295,0.0379,0.0454,0.0605,0.0621,0.0631,0.0673,0.0672,0.0608,0.0626,0.059,0.0546,0.0628,0.0628,0.0628,0,-0.0988,-0.0969,-0.0948,-0.0877,-0.084,-0.0792,-0.0665,-0.0572,-0.0402,-0.0309,-0.0161,-0.0002,0.0158,0.0257,0.0442,0.0454,0.0537,0.0626,0.0626,0.0623,0.0652,0.0535,0.0539,0.0624,0.0624,0.0624,0.0625,0,-0.1045,-0.0995,-0.0995,-0.0961,-0.0857,-0.0842,-0.0768,-0.062,-0.0541,-0.0391,-0.0335,-0.0133,-0.0009,0.0124,0.0361,0.0393,0.0528,0.0564,0.0603,0.0601,0.0581,0.0577,0.062,0.062,0.062,0.0621,0.0621,0,-0.1063,-0.1053,-0.1032,-0.1017,-0.1003,-0.0911,-0.0863,-0.0774,-0.0655,-0.0571,-0.0397,-0.0298,-0.0026,0.012,0.0284,0.0446,0.0446,0.0578,0.059,0.0562,0.0558,0.0645,0.0649,0.0619,0.0619,0.062,0.062,0,-0.1085,-0.1079,-0.1071,-0.1035,-0.1023,-0.1,-0.0914,-0.0871,-0.0773,-0.0674,-0.0629,-0.0413,-0.0224,0.0011,0.0233,0.0343,0.0485,0.0529,0.0469,0.0475,0.0548,0.055,0.0517,0.0516,0.0515,0.0514,0.0514,0,-0.1087,-0.1095,-0.1093,-0.1097,-0.1082,-0.1047,-0.1014,-0.092,-0.0867,-0.0729,-0.0683,-0.0497,-0.0331,-0.0046,0.0193,0.0391,0.0463,0.0433,0.0478,0.0523,0.0538,0.0541,0.0544,0.0422,0.042,0.0419,0.0418,0,-0.1084,-0.1098,-0.1097,-0.1122,-0.1118,-0.1096,-0.1051,-0.1032,-0.0914,-0.0846,-0.0725,-0.0612,-0.033,-0.0082,0.0171,0.0286,0.0399,0.0414,0.0478,0.0461,0.0432,0.0448,0.0454,0.0409,0.041,0.0411,0.0411,0.0412,-0.1078,-0.1088,-0.111,-0.1124,-0.1134,-0.1131,-0.1105,-0.1055,-0.0986,-0.0845,-0.0758,-0.0563,-0.0361,0.0024,0.0188,0.0347,0.0352,0.0389,0.0393,0.0398,0.0402,0.0375,0.0339,0.0339,0.034,0.034,0.0341,0,-0.1055,-0.1077,-0.1101,-0.1128,-0.1151,-0.1149,-0.1112,-0.1065,-0.099,-0.084,-0.0703,-0.0457,-0.0229,-0.0,0.0231,0.0334,0.0353,0.0351,0.0364,0.037,0.0376,0.0382,0.0312,0.0313,0.0314,0.0314,0,0,-0.1041,-0.106,-0.1083,-0.1129,-0.1157,-0.1153,-0.1132,-0.1054,-0.0937,-0.0763,-0.0599,-0.0418,-0.0198,-0.0028,0.011,0.0227,0.0269,0.0229,0.023,0.0231,0.0237,0.0366,0.0377,0,0,0,0,0]}],[{"header":{"parameterUnit":"m.s-1","parameterCategory":2,"la1":30.2991,"la2":30.254,"lo1":-89.0895,"lo2":-89.0444,"dx":0.0017,"dy":0.0017,"nx":28,"ny":28,"refTime":"2022-12-05T15:00:00:Z","depth":"4","parameterNumber":2,"parameterNumberName":"U-component_of_CURRENTS"},"data":[0,0,0,0,0,0,0,0,0,0,0,0,0,0,0,0,0,0,0,0,0,0,0,0,0,0,0,0,0,0,0,0,0,0,0,0,0,0,0,0,0,0,0,0,0,0,0,0,0,0,0,0,0,0,0,0,0,0,-0.0975,-0.0975,0,-0.0917,-0.0916,-0.0916,-0.0903,-0.0903,-0.0904,-0.0904,-0.097,-0.0971,-0.0972,0,0,0,0,0,0,0,0,0,0,0,0,0,-0.094,-0.0942,-0.0975,-0.0975,-0.0974,-0.0917,-0.0916,-0.0915,-0.0902,-0.0903,-0.0904,-0.0905,-0.097,-0.0971,-0.0972,0,0,0,0,0,0,0,0,0,0,0,0,0,-0.0925,-0.0942,-0.0975,-0.0962,-0.0961,-0.0918,-0.0916,-0.0915,-0.0902,-0.0903,-0.0904,-0.0905,-0.0969,-0.0971,-0.0973,-0.0966,0,0,-0.0978,-0.0979,0,0,0,0,0,0,0,0,-0.0926,-0.0926,-0.0965,-0.0963,-0.0961,-0.092,-0.0928,-0.0939,-0.0902,-0.0922,-0.0904,-0.0905,-0.0965,-0.0967,-0.095,-0.0969,-0.0972,-0.0978,-0.0979,-0.098,-0.098,0,0,0,0,0,0,0,-0.0927,-0.0927,-0.095,-0.0964,-0.0962,-0.0913,-0.0913,-0.0929,-0.094,-0.0921,-0.092,-0.0917,-0.0965,-0.0948,-0.0952,-0.0972,-0.0978,-0.098,-0.0981,-0.0981,-0.1062,-0.1063,0,0,0,0,0,0,-0.0945,-0.0929,-0.0952,-0.0949,-0.0948,-0.0914,-0.0914,-0.0931,-0.0937,-0.0939,-0.0916,-0.0916,-0.0944,-0.095,-0.0954,-0.1007,-0.098,-0.0982,-0.0983,-0.1061,-0.1062,-0.1064,0,0,0,0,0,0,-0.0944,-0.0948,-0.0955,-0.0938,-0.0935,-0.0915,-0.0933,-0.0929,-0.0942,-0.0933,-0.0936,-0.0937,-0.0945,-0.0952,-0.0979,-0.1008,-0.0982,-0.0984,-0.106,-0.1062,-0.1063,-0.1075,0,0,0,0,0,0,-0.0944,-0.0949,-0.097,-0.094,-0.0937,-0.0968,-0.0932,-0.0927,-0.0937,-0.0938,-0.0952,-0.0956,-0.0947,-0.0976,-0.0981,-0.101,-0.0985,-0.1059,-0.1061,-0.1063,-0.1074,-0.1077,-0.108,0,0,0,0,0,-0.0943,-0.0954,-0.0971,-0.0974,-0.0967,-0.097,-0.0966,-0.0949,-0.0938,-0.0961,-0.0948,-0.0957,-0.0993,-0.0978,-0.0983,-0.1014,-0.1058,-0.106,-0.1062,-0.1072,-0.1076,-0.108,0,0,0,0,0,0,-0.093,-0.0953,-0.0971,-0.0986,-0.1004,-0.097,-0.097,-0.0968,-0.0971,-0.0971,-0.0962,-0.0966,-0.1004,-0.1008,-0.0992,-0.1044,-0.1032,-0.1035,-0.1037,-0.1041,-0.1045,-0.1021,-0.0987,0,0,0,0,0,-0.0946,-0.0971,-0.0988,-0.1002,-0.1015,-0.1004,-0.1002,-0.1002,-0.0995,-0.0997,-0.1004,-0.1008,-0.1011,-0.1027,-0.1037,-0.1064,-0.1058,-0.1091,-0.1094,-0.1097,-0.1082,-0.1104,-0.1107,-0.1072,-0.1072,-0.1071,0,0,-0.0942,-0.0956,-0.0971,-0.1003,-0.1005,-0.1012,-0.1005,-0.1017,-0.102,-0.1006,-0.1018,-0.1027,-0.1022,-0.1042,-0.1062,-0.1054,-0.1103,-0.11,-0.1102,-0.1085,-0.1107,-0.111,-0.1113,-0.1073,-0.1073,-0.1073,0,0,-0.093,-0.0969,-0.0988,-0.1008,-0.1033,-0.103,-0.1048,-0.1054,-0.1063,-0.1086,-0.1061,-0.1075,-0.1108,-0.1084,-0.1079,-0.1111,-0.1121,-0.1142,-0.1139,-0.1161,-0.1163,-0.1165,-0.1155,-0.1156,-0.1143,-0.1143,-0.1143,0,-0.0933,-0.0953,-0.0991,-0.1006,-0.1011,-0.1045,-0.1054,-0.1063,-0.1077,-0.1086,-0.1107,-0.1113,-0.1115,-0.1098,-0.1102,-0.1116,-0.1127,-0.112,-0.1163,-0.1165,-0.1167,-0.1156,-0.1157,-0.1144,-0.1144,-0.1144,-0.1144,0,-0.0928,-0.0951,-0.0958,-0.0995,-0.1013,-0.1028,-0.1056,-0.1086,-0.1112,-0.1121,-0.1152,-0.1145,-0.115,-0.1159,-0.1135,-0.1147,-0.1149,-0.1165,-0.1148,-0.1171,-0.1158,-0.1159,-0.1145,-0.1145,-0.1145,-0.1144,0,0,-0.0919,-0.0953,-0.0958,-0.097,-0.1011,-0.102,-0.1045,-0.1076,-0.1098,-0.1136,-0.1153,-0.1147,-0.1167,-0.1159,-0.1147,-0.115,-0.1165,-0.1165,-0.1166,-0.1144,-0.1202,-0.109,-0.108,-0.1204,-0.1205,-0.1205,-0.1184,0,-0.0911,-0.0921,-0.0945,-0.0956,-0.0965,-0.1006,-0.1027,-0.1062,-0.1111,-0.1148,-0.1152,-0.1175,-0.1162,-0.1174,-0.1177,-0.1169,-0.117,-0.1167,-0.1191,-0.119,-0.108,-0.1078,-0.1207,-0.1184,-0.1184,-0.1184,-0.1185,0,-0.0901,-0.0908,-0.0914,-0.0941,-0.0953,-0.0967,-0.1017,-0.104,-0.1099,-0.1145,-0.1173,-0.1201,-0.1185,-0.1197,-0.1187,-0.1196,-0.1197,-0.1191,-0.1191,-0.1077,-0.1079,-0.1159,-0.1186,-0.1186,-0.1186,-0.1186,-0.1185,0,-0.086,-0.0885,-0.0885,-0.0894,-0.0934,-0.095,-0.0973,-0.1037,-0.1068,-0.1138,-0.1183,-0.1199,-0.1209,-0.1217,-0.1198,-0.1215,-0.1191,-0.122,-0.1111,-0.1103,-0.1206,-0.1204,-0.1223,-0.1223,-0.1223,-0.1223,-0.1223,0,-0.083,-0.0834,-0.0867,-0.0867,-0.0883,-0.0919,-0.0954,-0.1001,-0.1063,-0.1097,-0.1169,-0.1193,-0.1225,-0.1221,-0.1208,-0.1136,-0.1203,-0.109,-0.1088,-0.1212,-0.1211,-0.1206,-0.1204,-0.1222,-0.1223,-0.1223,-0.1223,0,-0.0783,-0.0805,-0.0809,-0.0847,-0.0862,-0.0869,-0.0925,-0.0954,-0.103,-0.1075,-0.1096,-0.1184,-0.1182,-0.118,-0.118,-0.1129,-0.1086,-0.105,-0.1148,-0.1156,-0.0986,-0.0985,-0.0935,-0.0931,-0.0927,-0.0924,-0.0922,0,-0.0754,-0.0752,-0.0785,-0.0788,-0.0806,-0.0828,-0.0851,-0.0924,-0.0952,-0.1054,-0.1062,-0.1106,-0.1145,-0.104,-0.1061,-0.1003,-0.0994,-0.0961,-0.0991,-0.0952,-0.0955,-0.0961,-0.0965,-0.0916,-0.0915,-0.0914,-0.0914,0,-0.0703,-0.0725,-0.0728,-0.0736,-0.0751,-0.0763,-0.0793,-0.0808,-0.089,-0.0974,-0.1,-0.1002,-0.0994,-0.098,-0.0926,-0.0897,-0.0975,-0.0924,-0.0932,-0.0961,-0.0929,-0.0937,-0.0945,-0.0901,-0.0903,-0.0904,-0.0905,0,-0.0669,-0.0661,-0.0671,-0.067,-0.0685,-0.0678,-0.0709,-0.073,-0.0764,-0.0879,-0.0882,-0.0932,-0.0989,-0.0924,-0.0881,-0.0825,-0.0825,-0.0796,-0.0811,-0.0825,-0.0794,-0.0738,-0.0632,0,0,0,0,0,-0.0628,-0.0609,-0.0604,-0.059,-0.0602,-0.0608,-0.0662,-0.0701,-0.0787,-0.0772,-0.0822,-0.0815,-0.0784,-0.0814,-0.0731,-0.0818,-0.0815,-0.0717,-0.0788,-0.0833,-0.0847,-0.0819,0,0,0,0,0,0,-0.0597,-0.0591,-0.0579,-0.0519,-0.0495,-0.0499,-0.0528,-0.0592,-0.0589,-0.0686,-0.0674,-0.0739,-0.0719,-0.0805,-0.0707,-0.0707,-0.0726,-0.074,-0.0737,-0.0825,-0.0838,-0.0849,-0.0825,0,0,0,0,0]},{"header":{"parameterUnit":"m.s-1","parameterCategory":2,"la1":30.2991,"la2":30.254,"lo1":-89.0895,"lo2":-89.0444,"dx":0.0017,"dy":0.0017,"nx":28,"ny":28,"refTime":"2022-12-05T15:00:00:Z","depth":"4","parameterNumber":3,"parameterNumberName":"V-component_of_CURRENTS"},"data":[0,0,0,0,0,0,0,0,0,0,0,0,0,0,0,0,0,0,0,0,0,0,0,0,0,0,0,0,0,0,0,0,0,0,0,0,0,0,0,0,0,0,0,0,0,0,0,0,0,0,0,0,0,0,0,0,0,0,-0.0525,-0.0525,0,-0.0576,-0.0577,-0.0578,-0.0631,-0.0632,-0.0632,-0.0633,-0.0661,-0.0662,-0.0662,0,0,0,0,0,0,0,0,0,0,0,0,0,-0.0557,-0.0556,-0.0525,-0.0525,-0.0526,-0.0576,-0.0577,-0.0578,-0.0631,-0.0632,-0.0632,-0.0633,-0.0661,-0.0661,-0.0662,0,0,0,0,0,0,0,0,0,0,0,0,0,-0.0572,-0.0556,-0.0525,-0.0556,-0.0559,-0.0576,-0.0577,-0.0579,-0.0631,-0.0632,-0.0632,-0.0633,-0.0661,-0.0661,-0.0662,-0.0651,0,0,-0.0664,-0.0664,0,0,0,0,0,0,0,0,-0.0571,-0.0571,-0.0551,-0.0554,-0.0557,-0.0596,-0.0599,-0.0601,-0.0631,-0.0607,-0.0633,-0.0633,-0.0635,-0.0637,-0.065,-0.0653,-0.0654,-0.0664,-0.0664,-0.0664,-0.0664,0,0,0,0,0,0,0,-0.057,-0.057,-0.0548,-0.0551,-0.0555,-0.0596,-0.0599,-0.0601,-0.0618,-0.0609,-0.0612,-0.0613,-0.0637,-0.065,-0.0651,-0.0654,-0.0664,-0.0664,-0.0664,-0.0664,-0.0679,-0.0679,0,0,0,0,0,0,-0.0552,-0.0568,-0.0547,-0.055,-0.0563,-0.0594,-0.0597,-0.0585,-0.0619,-0.0624,-0.0612,-0.0615,-0.0648,-0.065,-0.0652,-0.0672,-0.0664,-0.0665,-0.0665,-0.0678,-0.0679,-0.0679,0,0,0,0,0,0,-0.0552,-0.0549,-0.0544,-0.0559,-0.0561,-0.0592,-0.0579,-0.0586,-0.0601,-0.0621,-0.0627,-0.062,-0.0649,-0.0651,-0.0662,-0.0672,-0.0665,-0.0665,-0.0678,-0.0678,-0.0679,-0.0691,0,0,0,0,0,0,-0.0553,-0.0548,-0.0545,-0.0557,-0.0559,-0.0548,-0.0578,-0.0586,-0.0599,-0.0603,-0.0629,-0.0633,-0.065,-0.0661,-0.0662,-0.0673,-0.0666,-0.0678,-0.0678,-0.0679,-0.0691,-0.0692,-0.0693,0,0,0,0,0,-0.0553,-0.0554,-0.0544,-0.0542,-0.0548,-0.0547,-0.0552,-0.058,-0.0598,-0.0599,-0.0625,-0.0632,-0.0663,-0.0661,-0.0663,-0.0674,-0.0678,-0.0678,-0.0679,-0.069,-0.0691,-0.0692,0,0,0,0,0,0,-0.0578,-0.0559,-0.0549,-0.0545,-0.0536,-0.0555,-0.0568,-0.0576,-0.0599,-0.0606,-0.0631,-0.0636,-0.0646,-0.0653,-0.0651,-0.0677,-0.0672,-0.0672,-0.068,-0.0682,-0.0682,-0.0688,-0.0666,0,0,0,0,0,-0.0573,-0.0566,-0.0546,-0.0546,-0.0537,-0.0547,-0.0555,-0.0561,-0.0577,-0.0589,-0.0613,-0.0634,-0.0646,-0.0659,-0.0666,-0.068,-0.066,-0.0688,-0.0689,-0.0689,-0.0694,-0.0676,-0.0675,-0.0679,-0.0679,-0.0679,0,0,-0.0584,-0.0574,-0.0571,-0.055,-0.0552,-0.0555,-0.0555,-0.0556,-0.057,-0.0585,-0.0625,-0.063,-0.0647,-0.0666,-0.0672,-0.0677,-0.0672,-0.069,-0.069,-0.0695,-0.0676,-0.0675,-0.0675,-0.0679,-0.0679,-0.0679,0,0,-0.0607,-0.0586,-0.0584,-0.0575,-0.056,-0.0563,-0.0557,-0.0563,-0.0573,-0.0585,-0.0609,-0.0625,-0.0644,-0.0672,-0.0683,-0.069,-0.0669,-0.0688,-0.071,-0.0692,-0.0692,-0.0691,-0.064,-0.0635,-0.07,-0.07,-0.07,0,-0.0621,-0.0613,-0.0587,-0.0585,-0.0591,-0.0566,-0.0572,-0.0574,-0.059,-0.0602,-0.0595,-0.0639,-0.0651,-0.0688,-0.0697,-0.0695,-0.0664,-0.0707,-0.0693,-0.0692,-0.0692,-0.064,-0.0634,-0.0701,-0.0701,-0.0701,-0.07,0,-0.0638,-0.0636,-0.0637,-0.0626,-0.0625,-0.0623,-0.0609,-0.0619,-0.0621,-0.0626,-0.0641,-0.0652,-0.0683,-0.0687,-0.0696,-0.0709,-0.0679,-0.0687,-0.069,-0.0692,-0.0637,-0.063,-0.0702,-0.0701,-0.0701,-0.0701,0,0,-0.0658,-0.0649,-0.0653,-0.0654,-0.0644,-0.0644,-0.0662,-0.0667,-0.0685,-0.0679,-0.0703,-0.0721,-0.0714,-0.0727,-0.0735,-0.0728,-0.0691,-0.0708,-0.0707,-0.0657,-0.0617,-0.0571,-0.0559,-0.0691,-0.0691,-0.069,-0.0571,0,-0.0678,-0.0692,-0.0685,-0.0708,-0.0707,-0.0701,-0.0722,-0.0725,-0.0722,-0.0737,-0.0726,-0.074,-0.073,-0.0741,-0.0731,-0.0701,-0.0678,-0.072,-0.0624,-0.062,-0.058,-0.0553,-0.0689,-0.0566,-0.0564,-0.0563,-0.0562,0,-0.0695,-0.0702,-0.0727,-0.0741,-0.0741,-0.0761,-0.079,-0.0797,-0.0802,-0.0797,-0.08,-0.078,-0.0773,-0.0758,-0.0693,-0.0715,-0.0667,-0.0636,-0.063,-0.0583,-0.0564,-0.057,-0.0551,-0.0552,-0.0552,-0.0553,-0.0554,0,-0.0719,-0.0734,-0.076,-0.0764,-0.0775,-0.0801,-0.0813,-0.0827,-0.0827,-0.0834,-0.0824,-0.0808,-0.0786,-0.0732,-0.0652,-0.067,-0.0556,-0.0575,-0.0484,-0.0479,-0.0552,-0.0554,-0.0526,-0.0526,-0.0526,-0.0527,-0.0527,0,-0.0736,-0.0758,-0.0777,-0.0789,-0.0824,-0.0824,-0.0857,-0.0871,-0.0872,-0.0862,-0.085,-0.0825,-0.0777,-0.0703,-0.0641,-0.0521,-0.0539,-0.0473,-0.0449,-0.0555,-0.056,-0.0545,-0.0549,-0.0522,-0.0523,-0.0524,-0.0525,0,-0.0747,-0.0764,-0.079,-0.0819,-0.0833,-0.0856,-0.0876,-0.089,-0.0888,-0.0874,-0.0869,-0.0823,-0.0721,-0.0645,-0.0546,-0.0496,-0.0402,-0.036,-0.0444,-0.0427,-0.0337,-0.0343,-0.0247,-0.0245,-0.0242,-0.0241,-0.0239,0,-0.0746,-0.0764,-0.0811,-0.0834,-0.0851,-0.0881,-0.0901,-0.0907,-0.0905,-0.0857,-0.0841,-0.0753,-0.0707,-0.0503,-0.0452,-0.0311,-0.0308,-0.0257,-0.0335,-0.0324,-0.031,-0.032,-0.0328,-0.0236,-0.0235,-0.0235,-0.0234,0,-0.0738,-0.0769,-0.0792,-0.0842,-0.0876,-0.0899,-0.0918,-0.0909,-0.0891,-0.0886,-0.0779,-0.0688,-0.0569,-0.0463,-0.0349,-0.0263,-0.0294,-0.0235,-0.024,-0.0313,-0.031,-0.03,-0.031,-0.0227,-0.0228,-0.0228,-0.0229,0,-0.0733,-0.0753,-0.0797,-0.0835,-0.0883,-0.0904,-0.0911,-0.0878,-0.086,-0.0793,-0.0752,-0.0635,-0.0579,-0.0434,-0.033,-0.0235,-0.0235,-0.0231,-0.0236,-0.0244,-0.0295,-0.0295,-0.0173,0,0,0,0,0,-0.0717,-0.0743,-0.0784,-0.0828,-0.0879,-0.0905,-0.0917,-0.0912,-0.0882,-0.0792,-0.0763,-0.0641,-0.0474,-0.0416,-0.0308,-0.0327,-0.0247,-0.0202,-0.0252,-0.0185,-0.0194,-0.0253,0,0,0,0,0,0,-0.0708,-0.0749,-0.0773,-0.0816,-0.0849,-0.0893,-0.0902,-0.0882,-0.082,-0.0774,-0.0677,-0.0623,-0.0464,-0.0525,-0.0306,-0.0282,-0.0302,-0.0127,-0.0125,-0.018,-0.0188,-0.0195,-0.0259,0,0,0,0,0]}]]